Location: Newark
(37.7892°N, 97.1083°W)
Time: 16:54:56
(UTC+00:00)

Hubble Space Telescope - Pass Details

Date: 15 December 2019
Orbit: 536 x 540 km, 28.5° (Epoch: 24 January)

Event Time Altitude Azimuth Distance (km) Brightness Sun altitude
Rises 13:01:47 0° 242° (WSW) 2,675 4.0 -7.0°
Reaches altitude 10° 13:04:25 10° 226° (SW) 1,785 3.2 -6.5°
Maximum altitude 13:07:36 21° 176° (S) 1,216 3.0 -5.9°
Drops below altitude 10° 13:10:47 10° 125° (SE) 1,786 5.2 -5.4°
Sets 13:13:25 0° 110° (ESE) 2,677 7.0 -4.9°
